Time,TemperatureF,DewpointF,PressureIn,WindDirection,WindDirectionDegrees,WindSpeedMPH,WindSpeedGustMPH,Humidity,HourlyPrecipIn,Conditions,Clouds,dailyrainin,SoftwareType,DateUTC
2013-01-22 00:16:00,68.4,62.0,30.03,NNE,22,3.7,-999.0,80,-99.99,,,0.00,Acu-Link.com,2013-01-22 10:16:00,
2013-01-22 00:31:00,68.7,61.9,30.02,SSE,157,1.7,-999.0,79,-99.99,,,0.00,Acu-Link.com,2013-01-22 10:31:00,
2013-01-22 00:46:00,68.5,61.7,30.02,South,180,1.7,-999.0,79,-99.99,,,0.00,Acu-Link.com,2013-01-22 10:46:00,
2013-01-22 01:01:00,68.5,62.1,30.02,South,180,0.0,-999.0,80,-99.99,,,0.00,Acu-Link.com,2013-01-22 11:01:00,
2013-01-22 01:17:00,68.4,61.6,30.02,NNW,337,1.7,-999.0,79,-99.99,,,0.00,Acu-Link.com,2013-01-22 11:17:00,
2013-01-22 01:32:00,68.4,61.6,30.02,SSE,157,1.1,-999.0,79,-99.99,,,0.00,Acu-Link.com,2013-01-22 11:32:00,
2013-01-22 01:47:00,68.5,61.0,30.02,NE,45,2.2,-999.0,77,-99.99,,,0.00,Acu-Link.com,2013-01-22 11:47:00,
2013-01-22 02:02:00,68.7,60.8,30.01,South,180,1.1,-999.0,76,-99.99,,,0.00,Acu-Link.com,2013-01-22 12:02:00,
2013-01-22 02:18:00,68.5,60.6,30.02,SSE,157,2.7,-999.0,76,-99.99,,,0.00,Acu-Link.com,2013-01-22 12:18:00,
2013-01-22 02:33:00,68.2,61.1,30.01,ESE,112,1.1,-999.0,78,-99.99,,,0.00,Acu-Link.com,2013-01-22 12:33:00,
2013-01-22 02:48:00,68.2,61.4,30.02,SE,135,1.1,-999.0,79,-99.99,,,0.00,Acu-Link.com,2013-01-22 12:48:00,
2013-01-22 03:04:00,67.8,61.4,30.01,NW,315,3.7,-999.0,80,-99.99,,,0.00,Acu-Link.com,2013-01-22 13:04:00,
2013-01-22 03:19:00,68.2,60.7,30.01,North,0,5.3,-999.0,77,-99.99,,,0.00,Acu-Link.com,2013-01-22 13:19:00,
2013-01-22 03:34:00,68.4,60.5,30.01,NNW,337,2.2,-999.0,76,-99.99,,,0.00,Acu-Link.com,2013-01-22 13:34:00,
2013-01-22 03:49:00,68.2,61.1,29.99,SE,135,0.0,-999.0,78,-99.99,,,0.00,Acu-Link.com,2013-01-22 13:49:00,
2013-01-22 04:05:00,68.0,61.2,29.99,ENE,67,3.7,-999.0,79,-99.99,,,0.00,Acu-Link.com,2013-01-22 14:05:00,
2013-01-22 04:20:00,68.0,60.9,29.99,SE,135,0.0,-999.0,78,-99.99,,,0.00,Acu-Link.com,2013-01-22 14:20:00,
2013-01-22 04:35:00,67.6,59.4,29.99,SSE,157,0.0,-999.0,75,-99.99,,,0.00,Acu-Link.com,2013-01-22 14:35:00,
2013-01-22 04:51:00,67.3,60.2,29.99,SE,135,0.0,-999.0,78,-99.99,,,0.00,Acu-Link.com,2013-01-22 14:51:00,
2013-01-22 05:21:00,66.9,60.9,30.01,NE,45,1.7,-999.0,81,-99.99,,,0.00,Acu-Link.com,2013-01-22 15:21:00,
2013-01-22 05:37:00,66.7,61.0,30.01,ESE,112,0.0,-999.0,82,-99.99,,,0.00,Acu-Link.com,2013-01-22 15:37:00,
2013-01-22 05:52:00,66.7,61.7,30.01,ESE,112,2.2,-999.0,84,-99.99,,,0.00,Acu-Link.com,2013-01-22 15:52:00,
2013-01-22 06:07:00,66.7,62.0,30.01,East,90,0.0,-999.0,85,-99.99,,,0.00,Acu-Link.com,2013-01-22 16:07:00,
2013-01-22 06:22:00,66.4,62.1,30.02,ENE,67,0.0,-999.0,86,-99.99,,,0.00,Acu-Link.com,2013-01-22 16:22:00,
2013-01-22 06:38:00,66.0,61.7,30.01,SE,135,0.0,-999.0,86,-99.99,,,0.00,Acu-Link.com,2013-01-22 16:38:00,
2013-01-22 06:53:00,65.5,61.8,30.03,ESE,112,0.0,-999.0,88,-99.99,,,0.00,Acu-Link.com,2013-01-22 16:53:00,
2013-01-22 11:33:00,74.3,66.6,30.04,North,0,3.7,-999.0,77,-99.99,,,0.00,Acu-Link.com,2013-01-22 21:33:00,
2013-01-22 11:49:00,74.3,66.6,30.02,SSE,157,1.7,-999.0,77,-99.99,,,0.00,Acu-Link.com,2013-01-22 21:49:00,
2013-01-22 12:07:00,76.5,64.7,30.01,SSE,157,1.7,-999.0,67,-99.99,,,0.00,Acu-Link.com,2013-01-22 22:07:00,
2013-01-22 12:23:00,76.8,64.6,30.00,NNE,22,2.7,-999.0,66,-99.99,,,0.00,Acu-Link.com,2013-01-22 22:23:00,
2013-01-22 12:38:00,77.9,63.8,30.00,SW,225,0.0,-999.0,62,-99.99,,,0.00,Acu-Link.com,2013-01-22 22:38:00,
2013-01-22 12:58:00,78.1,64.0,29.98,NE,45,4.2,-999.0,62,-99.99,,,0.00,Acu-Link.com,2013-01-22 22:58:00,
2013-01-22 13:13:00,79.2,63.6,29.97,NNE,22,2.7,-999.0,59,-99.99,,,0.00,Acu-Link.com,2013-01-22 23:13:00,
2013-01-22 13:29:00,80.4,64.2,29.97,NNW,337,4.7,-999.0,58,-99.99,,,0.00,Acu-Link.com,2013-01-22 23:29:00,
2013-01-22 13:44:00,80.1,64.5,29.96,SW,225,4.2,-999.0,59,-99.99,,,0.00,Acu-Link.com,2013-01-22 23:44:00,
2013-01-22 13:59:00,79.5,62.9,29.95,North,0,4.7,-999.0,57,-99.99,,,0.00,Acu-Link.com,2013-01-22 23:59:00,
2013-01-22 14:15:00,79.5,63.4,29.95,SSW,202,1.1,-999.0,58,-99.99,,,0.00,Acu-Link.com,2013-01-23 00:15:00,
2013-01-22 14:30:00,79.7,62.6,29.94,East,90,1.7,-999.0,56,-99.99,,,0.00,Acu-Link.com,2013-01-23 00:30:00,
2013-01-22 14:45:00,78.1,61.6,29.95,North,0,5.3,-999.0,57,-99.99,,,0.00,Acu-Link.com,2013-01-23 00:45:00,
2013-01-22 15:00:00,79.0,61.9,29.94,NW,315,1.7,-999.0,56,-99.99,,,0.00,Acu-Link.com,2013-01-23 01:00:00,
2013-01-22 15:15:00,79.2,62.1,29.94,NNE,22,1.1,-999.0,56,-99.99,,,0.00,Acu-Link.com,2013-01-23 01:15:00,
2013-01-22 15:31:00,79.7,62.1,29.94,West,270,3.7,-999.0,55,-99.99,,,0.00,Acu-Link.com,2013-01-23 01:31:00,
2013-01-22 15:46:00,77.2,61.3,29.94,NNE,22,3.7,-999.0,58,-99.99,,,0.00,Acu-Link.com,2013-01-23 01:46:00,
2013-01-22 16:16:00,77.4,61.0,29.95,ESE,112,1.1,-999.0,57,-99.99,,,0.00,Acu-Link.com,2013-01-23 02:16:00,
2013-01-22 16:47:00,76.6,61.2,29.95,South,180,1.1,-999.0,59,-99.99,,,0.00,Acu-Link.com,2013-01-23 02:47:00,
2013-01-22 17:02:00,79.2,61.6,29.96,SSW,202,0.0,-999.0,55,-99.99,,,0.00,Acu-Link.com,2013-01-23 03:02:00,
2013-01-22 17:18:00,78.1,61.6,29.95,South,180,0.0,-999.0,57,-99.99,,,0.00,Acu-Link.com,2013-01-23 03:18:00,
2013-01-22 17:33:00,76.5,61.1,29.94,WSW,247,0.0,-999.0,59,-99.99,,,0.00,Acu-Link.com,2013-01-23 03:33:00,
2013-01-22 17:48:00,75.4,60.5,29.97,ESE,112,4.2,-999.0,60,-99.99,,,0.00,Acu-Link.com,2013-01-23 03:48:00,
2013-01-22 18:04:00,74.3,62.2,29.95,ESE,112,0.0,-999.0,66,-99.99,,,0.00,Acu-Link.com,2013-01-23 04:04:00,
2013-01-22 18:19:00,72.7,61.5,29.96,SE,135,0.0,-999.0,68,-99.99,,,0.00,Acu-Link.com,2013-01-23 04:19:00,
2013-01-22 18:34:00,71.4,61.9,29.97,ESE,112,0.0,-999.0,72,-99.99,,,0.00,Acu-Link.com,2013-01-23 04:34:00,
2013-01-22 18:50:00,70.7,61.6,29.96,SE,135,0.0,-999.0,73,-99.99,,,0.00,Acu-Link.com,2013-01-23 04:50:00,
2013-01-22 19:05:00,70.3,61.6,29.96,SSE,157,0.0,-999.0,74,-99.99,,,0.00,Acu-Link.com,2013-01-23 05:05:00,
2013-01-22 19:20:00,70.3,62.0,29.97,WSW,247,0.0,-999.0,75,-99.99,,,0.00,Acu-Link.com,2013-01-23 05:20:00,
2013-01-22 19:35:00,70.2,62.6,29.99,ENE,67,0.0,-999.0,77,-99.99,,,0.00,Acu-Link.com,2013-01-23 05:35:00,
2013-01-22 19:51:00,69.4,61.9,29.97,SE,135,0.0,-999.0,77,-99.99,,,0.00,Acu-Link.com,2013-01-23 05:51:00,
2013-01-22 20:21:00,68.7,62.3,29.99,SSE,157,0.0,-999.0,80,-99.99,,,0.00,Acu-Link.com,2013-01-23 06:21:00,
2013-01-22 20:37:00,68.5,62.1,30.00,South,180,0.0,-999.0,80,-99.99,,,0.00,Acu-Link.com,2013-01-23 06:37:00,
2013-01-22 20:52:00,69.1,61.9,29.98,SSW,202,0.0,-999.0,78,-99.99,,,0.00,Acu-Link.com,2013-01-23 06:52:00,
2013-01-22 21:07:00,69.3,61.8,29.98,ESE,112,1.1,-999.0,77,-99.99,,,0.00,Acu-Link.com,2013-01-23 07:07:00,
2013-01-22 21:22:00,69.3,61.8,30.00,WSW,247,2.2,-999.0,77,-99.99,,,0.00,Acu-Link.com,2013-01-23 07:22:00,
2013-01-22 21:38:00,69.3,61.4,30.00,South,180,0.0,-999.0,76,-99.99,,,0.00,Acu-Link.com,2013-01-23 07:38:00,
2013-01-22 21:53:00,68.9,61.7,29.99,SSE,157,0.0,-999.0,78,-99.99,,,0.00,Acu-Link.com,2013-01-23 07:53:00,
2013-01-22 22:08:00,68.5,62.1,29.99,ENE,67,0.0,-999.0,80,-99.99,,,0.00,Acu-Link.com,2013-01-23 08:08:00,
2013-01-22 22:24:00,68.5,62.4,29.98,SW,225,1.1,-999.0,81,-99.99,,,0.00,Acu-Link.com,2013-01-23 08:24:00,
2013-01-22 22:39:00,68.7,63.3,29.99,ESE,112,0.0,-999.0,83,-99.99,,,0.00,Acu-Link.com,2013-01-23 08:39:00,